Macon, GA

10:14 PM EST on November 16, 2019 (GMT -0500)
Middle Georgia Regional

Weather History for KMCN - October, 2019

Change the Weather History Date:

Sunday, October 20, 2019

  Actual Average Record
Temperature  
Mean Temperature 68 °F 64 °F  
Max Temperature 78 °F 76 °F 91 °F (1943)
Min Temperature 57 °F 51 °F 32 °F (1967)
Degree Days  
Heating Degree Days 0 4  
Month to date heating degree days 15 43  
Since 1 July heating degree days 15 49  
Cooling Degree Days 3 2  
Month to date cooling degree days 189 76  
Year to date cooling degree days 2741 2126  
Growing Degree Days 18 (Base 50)    
Moisture  
Dew Point 59 °F    
Average Humidity 75    
Maximum Humidity 93    
Minimum Humidity 56    
Precipitation  
Precipitation T in 0.09 in 1.34 in (1976)
Month to date precipitation 3.43 1.87  
Year to date precipitation 30.75 37.40  
Sea Level Pressure  
Sea Level Pressure 29.86 in    
Wind  
Wind Speed 7 mph (WNW)    
Max Wind Speed 15 mph    
Max Gust Speed 20 mph    
Visibility 9 miles    
Events Rain    
T = Trace of Precipitation, MM = Missing Value Source: NWS Daily Summary

Daily Weather History Graph

Daily Weather History Graph

Search for Another Location

Airport or City:

Astronomy

Oct. 20, 2019 Rise Set
Actual Time 7:42 AM EDT 6:56 PM EDT
Civil Twilight 7:17 AM EDT 7:21 PM EDT
Nautical Twilight 6:48 AM EDT 7:49 PM EDT
Astronomical Twilight 6:19 AM EDT 8:18 PM EDT
Moon No Moon Rise 1:56 PM EDT (10/20)
Length of Visible Light 12h 03m
Length of Day
11h 13m
Waning Gibbous, 59% of the Moon is Illuminated
Oct 20
Waning Gibbous
Oct 21
Last Quarter
Oct 27
New
Nov 4
First Quarter
Nov 12
Full

Hourly Weather History & Observations

Time (EDT) Temp. Dew Point Humidity Pressure Visibility Wind Dir Wind Speed Gust Speed Precip Events Conditions
12:53 AM 60.1 °F 57.9 °F 93% 29.66 in 6.0 mi NNW 12.7 mph - 0.01 in Rain Light Rain
1:53 AM 59.0 °F 57.0 °F 93% 29.67 in 10.0 mi NNW 8.1 mph - 0.00 in   Overcast
2:53 AM 59.0 °F 57.0 °F 93% 29.71 in 4.0 mi WNW 10.4 mph - N/A   Overcast
3:53 AM 57.9 °F 55.0 °F 90% 29.73 in 10.0 mi WNW 9.2 mph - N/A   Overcast
4:53 AM 57.0 °F 55.0 °F 93% 29.75 in 10.0 mi WNW 10.4 mph - N/A   Overcast
5:53 AM 57.9 °F 55.9 °F 93% 29.78 in 4.0 mi WNW 9.2 mph - 0.00 in   Overcast
6:53 AM 57.9 °F 55.9 °F 93% 29.82 in 10.0 mi WNW 8.1 mph - N/A   Overcast
7:40 AM 57.9 °F 55.9 °F 93% 29.84 in 10.0 mi WNW 6.9 mph - N/A   Overcast
7:50 AM 59.0 °F 57.2 °F 94% 29.84 in 10.0 mi West 6.9 mph - N/A   Overcast
7:53 AM 59.0 °F 57.0 °F 93% 29.84 in 10.0 mi West 5.8 mph - N/A   Overcast
8:53 AM 60.1 °F 57.0 °F 90% 29.86 in 10.0 mi West 4.6 mph - N/A   Overcast
9:53 AM 62.1 °F 59.0 °F 90% 29.90 in 10.0 mi West 9.2 mph - N/A   Overcast
10:53 AM 63.0 °F 59.0 °F 87% 29.91 in 10.0 mi West 8.1 mph - N/A   Overcast
11:32 AM 66.0 °F 59.0 °F 78% 29.92 in 10.0 mi West 6.9 mph - N/A   Overcast
11:53 AM 66.9 °F 60.1 °F 79% 29.92 in 10.0 mi WNW 6.9 mph - N/A   Overcast
12:53 PM 69.1 °F 60.1 °F 73% 29.92 in 10.0 mi West 10.4 mph - N/A   Overcast
1:00 PM 70.0 °F 60.1 °F 71% 29.93 in 10.0 mi West 10.4 mph - N/A   Overcast
1:53 PM 73.0 °F 61.0 °F 66% 29.91 in 10.0 mi WNW 13.8 mph 18.4 mph N/A   Overcast
2:53 PM 75.9 °F 61.0 °F 60% 29.90 in 10.0 mi West 9.2 mph - N/A   Partly Cloudy
3:53 PM 77.0 °F 61.0 °F 58% 29.90 in 10.0 mi West 5.8 mph - N/A   Clear
4:53 PM 77.0 °F 61.0 °F 58% 29.90 in 10.0 mi Variable 6.9 mph - N/A   Clear
5:53 PM 75.9 °F 61.0 °F 60% 29.91 in 10.0 mi West 5.8 mph - N/A   Clear
6:53 PM 70.0 °F 61.0 °F 73% 29.92 in 10.0 mi WSW 5.8 mph - N/A   Clear
7:53 PM 66.0 °F 61.0 °F 84% 29.92 in 10.0 mi West 4.6 mph - N/A   Clear
8:53 PM 64.0 °F 61.0 °F 90% 29.94 in 10.0 mi West 4.6 mph - N/A   Clear
9:53 PM 62.1 °F 60.1 °F 93% 29.95 in 8.0 mi Calm Calm - N/A   Clear
10:53 PM 60.1 °F 57.9 °F 93% 29.97 in 9.0 mi Calm Calm - N/A   Clear
11:53 PM 59.0 °F 57.9 °F 96% 29.98 in 10.0 mi Calm Calm - N/A   Clear